Tracking 18957 objects as of 23-Jan-2018
HD Live streaming from Space Station
objects crossing your sky now

FENGYUN 1C DEB

Track FENGYUN 1C DEB now!
10-day predictions


NORAD ID: 31481
Int'l Code: 1999-025BVV
Perigee: 639.5 km
Apogee: 716.7 km
Inclination: 99.2 °
Period: 98.2 minutes
Semi major axis: 7049 km
RCS: 0.0112 m2 (small)
Launch date: May 10, 1999
Source: People's Republic of China (PRC)
Launch site: Taiyaun Space Center, China (TSC)

Note: This is SATELLITE DEBRIS
aabbcc
Your satellite tracking list
Your tracking list is empty




NASA's NSSDC Master Catalog

Two Line Element Set (TLE):
1 31481U 99025BVV 18021.52700745  .00002977  00000-0  53149-3 0  9994
2 31481  99.2470  49.7641 0054758  50.5928 310.0102 14.66916133567891
Source of the keplerian elements: AFSPC